When you browse on this site, cookies collect data to enhance your experience and personalize the content and advertising you see.
Visit our Privacy Policy to learn more. By continuing to use the site, you agree to this use of cookies and data.
  • In Hungary
  • List of Countries
  • For 7 days
  • Water Temperature
  • Weather Map
  • News
  • Weather Widgets
  • user-avatar
    Login

    Hourly Weather Seregno

    Today, 19 November, Tuesday

    Time Temperature Precipitation Wind Pressure Humidity
    00:00 +7°C° 0.9 mm 2 mps 741 mmHg 83%
    01:00 +7°C° 0.9 mm 2 mps 741 mmHg 83%
    02:00 +7°C° 0.9 mm 2 mps 740 mmHg 83%
    03:00 +7°C° 0.9 mm 3 mps 740 mmHg 82%
    04:00 +7°C° 0.9 mm 3 mps 740 mmHg 82%
    05:00 +7°C° 1.1 mm 3 mps 740 mmHg 83%
    06:00 +7°C° 1.1 mm 3 mps 740 mmHg 84%
    07:00 +8°C° 1.1 mm 3 mps 740 mmHg 85%
    08:00 +8°C° 2.4 mm 3 mps 740 mmHg 86%
    09:00 +8°C° 2.4 mm 3 mps 740 mmHg 87%
    10:00 +8°C° 2.4 mm 2 mps 740 mmHg 88%
    11:00 +8°C° 2.8 mm 2 mps 740 mmHg 88%
    12:00 +8°C° 2.8 mm 2 mps 739 mmHg 88%
    13:00 +8°C° 2.8 mm 2 mps 739 mmHg 88%
    14:00 +8°C° 1.4 mm 2 mps 739 mmHg 87%
    15:00 +8°C° 1.4 mm 2 mps 739 mmHg 87%
    16:00 +8°C° 1.4 mm 2 mps 740 mmHg 86%
    17:00 +8°C° 1.6 mm 2 mps 740 mmHg 87%
    18:00 +8°C° 1.6 mm 2 mps 740 mmHg 89%
    19:00 +8°C° 1.6 mm 2 mps 740 mmHg 90%
    20:00 +8°C° 1.7 mm 2 mps 740 mmHg 90%
    21:00 +10°C° 1.7 mm 1 mps 740 mmHg 91%
    22:00 +10°C° 1.7 mm 1 mps 741 mmHg 92%
    23:00 +10°C° 1.3 mm 1 mps 741 mmHg 92%

    Tomorrow, 20 November, Wednesday

    Time Temperature Precipitation Wind Pressure Humidity
    00:00 +10°C° 1.3 mm 1 mps 741 mmHg 92%
    01:00 +10°C° 1.3 mm 1 mps 741 mmHg 92%
    02:00 +10°C° 0.6 mm 1 mps 740 mmHg 91%
    03:00 +10°C° 0.6 mm 1 mps 740 mmHg 91%
    04:00 +10°C° 0.6 mm 1 mps 740 mmHg 91%
    05:00 +10°C° 0.2 mm 1 mps 740 mmHg 90%
    06:00 +10°C° 0.2 mm 1 mps 740 mmHg 89%
    07:00 +10°C° 0.2 mm 1 mps 740 mmHg 88%
    08:00 +10°C° 0 mm 1 mps 740 mmHg 86%
    09:00 +11°C° 0 mm 1 mps 740 mmHg 85%
    10:00 +11°C° 0 mm 1 mps 740 mmHg 84%
    11:00 +12°C° 0 mm 1 mps 740 mmHg 81%
    12:00 +12°C° 0 mm 1 mps 740 mmHg 78%
    13:00 +13°C° 0 mm 1 mps 739 mmHg 75%
    14:00 +13°C° 0 mm 1 mps 739 mmHg 77%
    15:00 +13°C° 0 mm 1 mps 739 mmHg 78%
    16:00 +12°C° 0 mm 1 mps 739 mmHg 79%
    17:00 +11°C° 0 mm 1 mps 739 mmHg 82%
    18:00 +11°C° 0 mm 1 mps 740 mmHg 84%
    19:00 +10°C° 0 mm 1 mps 740 mmHg 86%
    20:00 +10°C° 0 mm 1 mps 740 mmHg 86%
    21:00 +9°C° 0 mm 1 mps 740 mmHg 85%
    22:00 +9°C° 0 mm 1 mps 740 mmHg 84%
    23:00 +9°C° 0 mm 1 mps 740 mmHg 84%

    Day after tomorrow, 21 November, Thursday

    Time Temperature Precipitation Wind Pressure Humidity
    00:00 +9°C° 0 mm 1 mps 740 mmHg 83%
    01:00 +9°C° 0 mm 1 mps 740 mmHg 82%
    02:00 +8°C° 0 mm 1 mps 740 mmHg 83%
    03:00 +8°C° 0 mm 1 mps 740 mmHg 83%
    04:00 +8°C° 0 mm 1 mps 740 mmHg 83%
    05:00 +8°C° 0 mm 1 mps 740 mmHg 82%
    06:00 +8°C° 0 mm 1 mps 740 mmHg 82%
    07:00 +8°C° 0 mm 1 mps 740 mmHg 81%
    08:00 +8°C° 0 mm 0 mps 740 mmHg 80%
    09:00 +8°C° 0 mm 0 mps 740 mmHg 79%
    10:00 +9°C° 0 mm 0 mps 740 mmHg 78%
    11:00 +9°C° 0 mm 0 mps 740 mmHg 76%
    12:00 +10°C° 0 mm 0 mps 740 mmHg 74%
    13:00 +10°C° 0 mm 0 mps 740 mmHg 72%
    14:00 +10°C° 0.2 mm 0 mps 740 mmHg 76%
    15:00 +11°C° 0.2 mm 1 mps 740 mmHg 80%
    16:00 +10°C° 0.2 mm 1 mps 740 mmHg 84%
    17:00 +10°C° 0.1 mm 1 mps 740 mmHg 84%
    18:00 +10°C° 0.1 mm 1 mps 741 mmHg 83%
    19:00 +10°C° 0.1 mm 1 mps 741 mmHg 83%
    20:00 +10°C° 0.1 mm 1 mps 741 mmHg 83%
    21:00 +10°C° 0.1 mm 1 mps 741 mmHg 82%
    22:00 +10°C° 0.1 mm 1 mps 742 mmHg 82%
    23:00 +9°C° 0 mm 1 mps 742 mmHg 83%

    22 November, Friday

    Time Temperature Precipitation Wind Pressure Humidity
    00:00 +9°C° 0 mm 1 mps 742 mmHg 83%
    01:00 +9°C° 0 mm 1 mps 742 mmHg 84%
    02:00 +8°C° 0 mm 0 mps 742 mmHg 85%
    03:00 +7°C° 0 mm 0 mps 742 mmHg 85%
    04:00 +7°C° 0 mm 0 mps 742 mmHg 85%
    05:00 +7°C° 0 mm 0 mps 742 mmHg 85%
    06:00 +8°C° 0 mm 1 mps 742 mmHg 84%
    07:00 +8°C° 0 mm 1 mps 742 mmHg 83%
    08:00 +7°C° 0 mm 0 mps 742 mmHg 81%
    09:00 +8°C° 0 mm 0 mps 742 mmHg 79%
    10:00 +9°C° 0 mm 0 mps 742 mmHg 77%
    11:00 +9°C° 0 mm 0 mps 741 mmHg 75%
    12:00 +10°C° 0 mm 0 mps 741 mmHg 72%
    13:00 +12°C° 0 mm 1 mps 740 mmHg 70%
    14:00 +11°C° 0.1 mm 1 mps 740 mmHg 72%
    15:00 +11°C° 0.1 mm 1 mps 740 mmHg 75%
    16:00 +11°C° 0.1 mm 1 mps 740 mmHg 77%
    17:00 +10°C° 0.1 mm 1 mps 740 mmHg 79%
    18:00 +10°C° 0.1 mm 1 mps 740 mmHg 81%
    19:00 +10°C° 0.1 mm 1 mps 740 mmHg 83%
    20:00 +10°C° 0.4 mm 1 mps 740 mmHg 84%
    21:00 +10°C° 0.4 mm 1 mps 740 mmHg 85%
    22:00 +10°C° 0.4 mm 1 mps 740 mmHg 86%
    23:00 +9°C° 0.7 mm 2 mps 739 mmHg 86%

    23 November, Saturday

    Time Temperature Precipitation Wind Pressure Humidity
    00:00 +9°C° 0.7 mm 2 mps 739 mmHg 86%
    01:00 +9°C° 0.7 mm 2 mps 739 mmHg 86%
    02:00 +9°C° 0.4 mm 2 mps 738 mmHg 85%
    03:00 +9°C° 0.4 mm 2 mps 738 mmHg 84%
    04:00 +9°C° 0.4 mm 2 mps 737 mmHg 84%
    05:00 +9°C° 0.7 mm 2 mps 737 mmHg 85%
    06:00 +9°C° 0.7 mm 2 mps 736 mmHg 86%
    07:00 +9°C° 0.7 mm 2 mps 736 mmHg 86%
    08:00 +9°C° 1.6 mm 3 mps 736 mmHg 86%
    09:00 +9°C° 1.6 mm 3 mps 735 mmHg 86%
    10:00 +9°C° 1.6 mm 3 mps 735 mmHg 86%
    11:00 +9°C° 2.3 mm 3 mps 735 mmHg 87%
    12:00 +9°C° 2.3 mm 3 mps 734 mmHg 88%
    13:00 +9°C° 2.3 mm 3 mps 734 mmHg 89%
    14:00 +8°C° 4 mm 3 mps 733 mmHg 90%
    15:00 +8°C° 4 mm 2 mps 733 mmHg 90%
    16:00 +8°C° 4 mm 2 mps 733 mmHg 91%
    17:00 +8°C° 2.8 mm 2 mps 733 mmHg 90%
    18:00 +8°C° 2.8 mm 2 mps 733 mmHg 89%
    19:00 +8°C° 2.8 mm 2 mps 734 mmHg 87%
    20:00 +8°C° 2.5 mm 2 mps 734 mmHg 88%
    21:00 +8°C° 2.5 mm 3 mps 734 mmHg 89%
    22:00 +8°C° 2.5 mm 3 mps 734 mmHg 90%
    23:00 +8°C° 3.4 mm 3 mps 734 mmHg 90%

    24 November, Sunday

    Time Temperature Precipitation Wind Pressure Humidity
    00:00 +8°C° 3.4 mm 3 mps 735 mmHg 90%
    01:00 +8°C° 3.4 mm 3 mps 735 mmHg 89%
    02:00 +9°C° 2.9 mm 3 mps 735 mmHg 88%
    03:00 +9°C° 2.9 mm 3 mps 736 mmHg 87%
    04:00 +9°C° 2.9 mm 3 mps 736 mmHg 86%
    05:00 +9°C° 1.2 mm 3 mps 736 mmHg 85%
    06:00 +9°C° 1.2 mm 3 mps 737 mmHg 84%
    07:00 +9°C° 1.2 mm 3 mps 738 mmHg 82%
    08:00 +9°C° 0.8 mm 3 mps 738 mmHg 83%
    09:00 +9°C° 0.8 mm 3 mps 739 mmHg 84%
    10:00 +9°C° 0.8 mm 2 mps 740 mmHg 84%
    11:00 +10°C° 0.5 mm 2 mps 740 mmHg 83%
    12:00 +10°C° 0.5 mm 2 mps 740 mmHg 83%
    13:00 +10°C° 0.5 mm 2 mps 740 mmHg 82%
    14:00 +10°C° 0.1 mm 2 mps 740 mmHg 81%
    15:00 +10°C° 0.1 mm 2 mps 741 mmHg 81%
    16:00 +11°C° 0.1 mm 1 mps 741 mmHg 80%
    17:00 +11°C° 0 mm 1 mps 741 mmHg 80%
    18:00 +11°C° 0 mm 1 mps 742 mmHg 80%
    19:00 +11°C° 0 mm 1 mps 742 mmHg 80%
    20:00 +11°C° 0 mm 1 mps 743 mmHg 81%
    21:00 +11°C° 0 mm 1 mps 743 mmHg 81%
    22:00 +11°C° 0 mm 1 mps 743 mmHg 82%
    23:00 +11°C° 0 mm 1 mps 743 mmHg 82%
    Show more